Address 0x630a5d2525db26388539a1334e6a35bde432a8dd 2

Txn Hash Method
Block
From
To
Value [Txn Fee]
0xbb26183370ba4a90c1a8dd6da1dffeaacf5f5ce534ad4e2c6dffa10e13494fa0Buy146299682021-12-02 18:49:403 days 14 hrs ago0x630a5d2525db26388539a1334e6a35bde432a8ddOUT 0x15550c3c37a8eefc77c052d1d1da60fe4d27633d0 BNB0.00095566
0xf797e229329ffa9f3eaef4dbd14df755a39be784a45958dda99fa85c937e13bfRemove Liquidity...146199162021-12-02 10:03:423 days 22 hrs ago0x630a5d2525db26388539a1334e6a35bde432a8ddOUT 0x4d911830164d1ec79aee7623818302046aa8a18b0 BNB0.00135958
0x038567fcda8dc5dbd2a140d54f4e23caee0999e1547a204f462998a2b19c9cefApprove146199122021-12-02 10:03:193 days 22 hrs ago0x630a5d2525db26388539a1334e6a35bde432a8ddOUT 0xabb4823f9a3369fb9d16657ecdf9dc8b2ae78b2e0 BNB0.00044332
0x7a4a303ad1f7497a65b5f9424fc0eaa474aa175417494d1fb7586db4a859c21aApprove146198622021-12-02 9:59:163 days 22 hrs ago0x630a5d2525db26388539a1334e6a35bde432a8ddOUT 0x3518eacc1b14ff50256b1d619ab650d98f2f28950 BNB0.00044406
0xf1198a5c1fccc411b5f7c4c9807926f531fea30530a65b5ca1d76f2516a3ab4cApprove146197962021-12-02 9:53:533 days 23 hrs ago0x630a5d2525db26388539a1334e6a35bde432a8ddOUT 0x3518eacc1b14ff50256b1d619ab650d98f2f28950 BNB0.00014511
0xcb78b90bdee2a29ed3df6cf78793dd16ae8cb48b6d8a5d4cf4bef0c8fa6d92afBuy145575052021-11-30 5:33:406 days 3 hrs ago0x630a5d2525db26388539a1334e6a35bde432a8ddOUT 0x15550c3c37a8eefc77c052d1d1da60fe4d27633d0 BNB0.00095566
0xb93c73ebb9c92cbc00168e4c7536ef1d6fbac483db901312a521e58e3ea9105fSwap Exact Nativ...145359972021-11-29 11:37:286 days 21 hrs ago0x630a5d2525db26388539a1334e6a35bde432a8ddOUT 0x7753b583a9a237600cd9e04caaa2ccf7e62e8f5c0.5 BNB0.00203282
0x800388963c3614636873dd47d1f3b53a7f5fbff5c2b1cb49b338dfbe084e9f6dApprove144486902021-11-26 10:50:339 days 22 hrs ago0x630a5d2525db26388539a1334e6a35bde432a8ddOUT 0x3518eacc1b14ff50256b1d619ab650d98f2f28950 BNB0.00029406
0x9ade306c62d01187d7e72555b6a240c6761cb366896d958af8cd44d78b97fe4bApprove144477772021-11-26 10:04:549 days 22 hrs ago0x630a5d2525db26388539a1334e6a35bde432a8ddOUT 0x3518eacc1b14ff50256b1d619ab650d98f2f28950 BNB0.00044394
0x02d8eca2de7c5b8689069c3e1fba01c5a59c0ad1adb7b6b9aae02fa56457ba90Buy144403652021-11-26 3:54:1710 days 5 hrs ago0x630a5d2525db26388539a1334e6a35bde432a8ddOUT 0x15550c3c37a8eefc77c052d1d1da60fe4d27633d0 BNB0.00095566
0xae26553e5003c6e1b2d9ee858bde0a648d76d0848267fb5acc3b6e894be3c4c2Buy144402522021-11-26 3:48:3810 days 5 hrs ago0x630a5d2525db26388539a1334e6a35bde432a8ddOUT 0x15550c3c37a8eefc77c052d1d1da60fe4d27633d0 BNB0.00095566
0xbf77aa9de22a9497ed0140f3ba56e38e65ac566413f38d5d43db853ed5ce094fBuy144391542021-11-26 2:53:4410 days 6 hrs ago0x630a5d2525db26388539a1334e6a35bde432a8ddOUT 0x15550c3c37a8eefc77c052d1d1da60fe4d27633d0 BNB0.00095566
0xf614ff20c81b031441576b4e74e80586a1af77926c8211136edf8f27fe5b1cecBuy144221072021-11-25 12:41:2210 days 20 hrs ago0x630a5d2525db26388539a1334e6a35bde432a8ddOUT 0x15550c3c37a8eefc77c052d1d1da60fe4d27633d0 BNB0.00095566
0x00ebb7916817190b934fc7d09c34382fd40503979de1808be3c33f3999b40cd5Buy144221012021-11-25 12:41:0410 days 20 hrs ago0x630a5d2525db26388539a1334e6a35bde432a8ddOUT 0x15550c3c37a8eefc77c052d1d1da60fe4d27633d0 BNB0.00110566
0x157287fe7f0902c64ed726068c2cefb70130f21eaa3476410d6adcbe1d47df8dApprove144220892021-11-25 12:40:2810 days 20 hrs ago0x630a5d2525db26388539a1334e6a35bde432a8ddOUT 0x3518eacc1b14ff50256b1d619ab650d98f2f28950 BNB0.00044406
0xe44538d15d671221b399dc9c2903ad077c5218b9f1787050acfeb512771a4cc2Approve144217732021-11-25 12:24:4010 days 20 hrs ago0x630a5d2525db26388539a1334e6a35bde432a8ddOUT 0x3518eacc1b14ff50256b1d619ab650d98f2f28950 BNB0.00014511
0x3f65fbfc2d1a24b0dfb62c3b6f8a7231dd25e9b779c15d5679a3fd42f6dee510Approve144213502021-11-25 12:03:3110 days 20 hrs ago0x630a5d2525db26388539a1334e6a35bde432a8ddOUT 0x3518eacc1b14ff50256b1d619ab650d98f2f28950 BNB0.00044406
0x19faeb922daf59c432ec97971bf13de1772b965312a5a33c242c0540f5d6e62fSwap Exact Token...144213282021-11-25 12:02:2510 days 20 hrs ago0x630a5d2525db26388539a1334e6a35bde432a8ddOUT 0x7753b583a9a237600cd9e04caaa2ccf7e62e8f5c0 BNB0.0058721
0x9d02ee39f51bf5badd8ad9180bf840a8c7ba026b5d06ba363af2de2858925f0aDeposit143877182021-11-24 8:01:1112 days 53 mins ago0x630a5d2525db26388539a1334e6a35bde432a8ddOUT 0xb0dabd0dbbde80aa931dbe0546e3b00d405a2a890 BNB0.00166579
0x8474cc13e9e64aa9f59224edca08d0545d5d4f438af5cb48a416d25c79876957Deposit143874302021-11-24 7:46:4112 days 1 hr ago0x630a5d2525db26388539a1334e6a35bde432a8ddOUT 0xb0dabd0dbbde80aa931dbe0546e3b00d405a2a890 BNB0.00200046
0xfd0902b0c2e2882cb33c3c01aab353dcb19e32e0d69c51dc805fbccfd13ff751Withdraw143373692021-11-22 13:01:2013 days 19 hrs ago0x630a5d2525db26388539a1334e6a35bde432a8ddOUT 0xb0dabd0dbbde80aa931dbe0546e3b00d405a2a890 BNB0.00133462
0x254de10c4693b35aa318c4966d545a7cd61738cfe407fadcd634306ca197029fDeposit143343002021-11-22 10:27:5313 days 22 hrs ago0x630a5d2525db26388539a1334e6a35bde432a8ddOUT 0xb0dabd0dbbde80aa931dbe0546e3b00d405a2a890 BNB0.00120417
0x0192ed630c7e73f4e4735a49fb1be7caaffb16f0150903785b6291983760fed1Withdraw143341642021-11-22 10:21:0513 days 22 hrs ago0x630a5d2525db26388539a1334e6a35bde432a8ddOUT 0xb0dabd0dbbde80aa931dbe0546e3b00d405a2a890 BNB0.00077186
0x02dfdfc1c11f4aad515e72df04356180c652111b264efa4293ffd1c33194f46bDeposit143337982021-11-22 10:02:4413 days 22 hrs ago0x630a5d2525db26388539a1334e6a35bde432a8ddOUT 0xb0dabd0dbbde80aa931dbe0546e3b00d405a2a890 BNB0.0018532
0x5435464d7ccff94a510ffb07a45ee1885ec555dce4e4f347315f8f04b68f0d5eApprove143273542021-11-22 4:39:5014 days 4 hrs ago0x630a5d2525db26388539a1334e6a35bde432a8ddOUT 0xaa4988ef2505068e7f4fba05e88ec19bc56297340 BNB0.00044406
[ Download CSV Export 
Latest 6 internal transactions
Parent Txn Hash Block From To Value
0xf797e229329ffa9f3eaef4dbd14df755a39be784a45958dda99fa85c937e13bf146199162021-12-02 10:03:423 days 22 hrs ago 0x4d911830164d1ec79aee7623818302046aa8a18b0x630a5d2525db26388539a1334e6a35bde432a8dd0.032059977887506127 BNB
0xf855fd8877f59011b3e857a57cd0fe5579286bf55918caaedb1ddfca835c20d9139599342021-11-09 10:01:2126 days 22 hrs ago 0x4d911830164d1ec79aee7623818302046aa8a18b0x630a5d2525db26388539a1334e6a35bde432a8dd10 wei
0xb8af75cbcb486f85846f40f6bbc12650074598197f5b8cdfb3ce3d2565cba784139599012021-11-09 9:59:4226 days 22 hrs ago 0x4d911830164d1ec79aee7623818302046aa8a18b0x630a5d2525db26388539a1334e6a35bde432a8dd0.008021871571015778 BNB
0x9dede392bfe169ac3f83c79881c61be1db46bb4d31bfd98aed6a250ed8a531fd125786262021-09-22 5:16:0275 days 3 hrs ago 0x4d911830164d1ec79aee7623818302046aa8a18b0x630a5d2525db26388539a1334e6a35bde432a8dd0.000003573071480635 BNB
0xe37ce5cf97b9926b124ff05f0c706263be3db6572a3c15e57d1adbe312f8961c125552272021-09-21 9:46:0575 days 23 hrs ago 0x4d911830164d1ec79aee7623818302046aa8a18b0x630a5d2525db26388539a1334e6a35bde432a8dd0.197329908894375203 BNB
0x170c34cf2bba9daa841c2392d4bf3563fc17091561ebc49e9e46be4d08a4e079123860882021-09-15 11:18:4381 days 21 hrs ago 0x5f47a5762eca2bce2fd9ca916cb7af03ad47ea9e0x630a5d2525db26388539a1334e6a35bde432a8dd0.1 BNB
[ Download CSV Export 
Loading

Contract Name:
0 BNB

Compiler Version
0

Optimization Enabled:
0 BNB

Other Settings:
-NA-
Block Transaction Gas Used Reward
Age Block Fee Address BC Fee Address Voting Power Jailed Incoming
Block Uncle Number Difficulty Gas Used Reward
Loading